Regional Weather Roundup
Issued by NWS

Home | Current Version | Previous Version | Graphics & Text | Print | Product List | Glossary On
Versions: 1 2 3 4 5 6 7 8 9 10 11 12 13 14 15 16 17 18 19 20 21 22 23 24 25 26 27 28 29 30 31 32 33 34 35 36 37 38 39 40 41 42 43 44 45 46 47 48 49 50
000
ASUS43 KTOP 052108
RWRKS

WEATHER ROUNDUP FOR KANSAS
NATIONAL WEATHER SERVICE GOODLAND KS
400 PM CDT TUE MAY 05 2015

NOTE:  "FAIR" INDICATES FEW OR NO CLOUDS BELOW 12,000 FEET WITH NO
SIGNIFICANT WEATHER AND/OR OBSTRUCTIONS TO VISIBILITY.

KSZ001>006-013>018-027>032-041>047-052200-
NORTHWEST KANSAS

CITY           SKY/WX    TMP DP  RH WIND       PRES   REMARKS
GOODLAND       LGT RAIN  58  55  90 SE24G35   29.85F
HAYS           CLOUDY    66  52  59 SE23      29.92F
HILL CITY      CLOUDY    66  54  65 SE23G29   29.91F
RUSSELL        LGT RAIN  68  54  60 SE24G31   29.92F
$$

KSZ061>065-074>080-084>089-052200-
SOUTHWEST KANSAS

CITY           SKY/WX    TMP DP  RH WIND       PRES   REMARKS
DODGE CITY     LGT RAIN  59  55  87 SE21G35   29.88F FOG
ELKHART          N/A     62  52  70 S15         N/A
GARDEN CITY    CLOUDY    58  57  97 SE25      29.84F
GREAT BEND     CLOUDY    66  54  63 SE16      29.92F
LIBERAL        CLOUDY    63  57  82 S18G25    29.83F
PRATT          LGT RAIN  61  57  88 SE16G23   29.95S
$$

KSZ066>073-081>083-090>101-052200-
SOUTHEAST KANSAS

CITY           SKY/WX    TMP DP  RH WIND       PRES   REMARKS
CHANUTE        PTSUNNY   78  61  55 SE16G23   30.00F
COFFEYVILLE    LGT RAIN  66  63  90 S14       30.02R FOG
HUTCHINSON     CLOUDY    73  51  46 S22       29.95F
MEDICINE LODGE   N/A     63  62  97 SE12G21   29.93F
NEWTON         CLOUDY    73  52  46 S17G26    29.99F
PARSONS        LGT RAIN  72  61  68 S20G36    30.03S
WICHITA INTL   CLOUDY    75  51  43 S24G32    29.96F
WICHITA JABRA  CLOUDY    75  49  39 S23G33    29.97F
WICHITA MCCONL CLOUDY    75  53  45 SE17G25   29.97F
WINFIELD       CLOUDY    74  54  49 S15       29.98F
$$

KSZ007>012-019>026-033>040-048>060-102>105-052200-
NORTHEAST KANSAS

CITY           SKY/WX    TMP DP  RH WIND       PRES   REMARKS
CONCORDIA      PTSUNNY   75  53  46 SE23G31   29.95F
EMPORIA        PTSUNNY   78  56  46 S22G29    29.99F
LAWRENCE       PTSUNNY   78  55  44 S16       30.02F
MANHATTAN      PTSUNNY   77  54  44 S18G28    29.97F
MARYSVILLE     CLOUDY    73  54  49 SE14G22   29.99F
OLATHE IND     PTSUNNY   81  56  42 S15       30.03F
OLATHE EXE     PTSUNNY   80  58  46 S13G18    30.02F
SALINA         PTSUNNY   76  55  48 S18       29.95F
TOPEKA BILLARD CLOUDY    80  56  43 SE15      30.01F
TOPEKA FORBES  PTSUNNY   82  57  42 S14       30.00F
$$



USA.gov is the U.S. government's official web portal to all federal, state and local government web resources and services.